[[{"header":{"parameterUnit":"m.s-1","parameterCategory":1,"la1":30.2991,"la2":30.254,"lo1":-89.0895,"lo2":-89.0444,"dy":0.0017,"dx":0.0017,"nx":28,"ny":28,"refTime":"2024-10-03T21:00:00:Z","depth":0,"parameterNumber":2,"parameterNumberName":"U-component_of_WINDS"},"data":[0,0,0,0,0,0,0,0,0,0,0,0,0,0,0,0,0,0,0,0,0,0,0,0,0,0,0,0,0,0,0,0,0,0,0,0,0,0,0,0,0,0,0,0,0,0,0,0,0,0,0,0,0,0,0,0,0,0,-1.6377,-1.6378,0,-1.6435,-1.6435,-1.6436,-1.6473,-1.6473,-1.6473,-1.6473,-1.6532,-1.6533,-1.6534,0,0,0,0,0,0,0,0,0,0,0,0,0,-1.6298,-1.63,-1.6377,-1.6378,-1.6378,-1.6434,-1.6435,-1.6436,-1.6473,-1.6473,-1.6473,-1.6474,-1.6531,-1.6533,-1.6534,0,0,0,0,0,0,0,0,0,0,0,0,0,-1.6342,-1.63,-1.6377,-1.6403,-1.6406,-1.6434,-1.6435,-1.6436,-1.6473,-1.6473,-1.6473,-1.6474,-1.6531,-1.6533,-1.6534,-1.654,0,0,-1.6541,-1.6542,0,0,0,0,0,0,0,0,-1.6339,-1.6345,-1.6399,-1.6402,-1.6405,-1.6447,-1.6429,-1.6471,-1.6473,-1.6447,-1.6473,-1.6474,-1.6503,-1.6507,-1.6517,-1.6543,-1.6545,-1.6541,-1.6542,-1.6543,-1.6543,0,0,0,0,0,0,0,-1.6336,-1.6342,-1.64,-1.6399,-1.6403,-1.6412,-1.6419,-1.6437,-1.6473,-1.645,-1.6452,-1.6459,-1.6505,-1.6515,-1.6519,-1.6546,-1.6541,-1.6543,-1.6544,-1.6545,-1.658,-1.658,0,0,0,0,0,0,-1.6329,-1.634,-1.6398,-1.6401,-1.6372,-1.6414,-1.6421,-1.6433,-1.6473,-1.6479,-1.6458,-1.646,-1.6512,-1.6517,-1.6521,-1.6531,-1.6543,-1.6545,-1.6546,-1.658,-1.658,-1.658,0,0,0,0,0,0,-1.6327,-1.6334,-1.6396,-1.6371,-1.638,-1.6415,-1.6428,-1.6434,-1.6445,-1.6479,-1.6486,-1.6463,-1.6512,-1.6518,-1.6535,-1.6533,-1.6546,-1.6547,-1.6581,-1.658,-1.658,-1.6549,0,0,0,0,0,0,-1.6325,-1.6333,-1.6336,-1.6371,-1.6381,-1.6409,-1.6428,-1.6435,-1.6448,-1.6451,-1.6485,-1.6491,-1.6513,-1.6532,-1.6537,-1.6536,-1.6549,-1.6581,-1.658,-1.658,-1.6551,-1.6548,-1.6546,0,0,0,0,0,-1.6322,-1.6324,-1.6335,-1.6342,-1.6385,-1.6408,-1.6414,-1.644,-1.6448,-1.6451,-1.6473,-1.649,-1.6533,-1.6534,-1.654,-1.6539,-1.6581,-1.6581,-1.658,-1.6552,-1.6548,-1.6546,0,0,0,0,0,0,-1.6287,-1.633,-1.6342,-1.6356,-1.6379,-1.6415,-1.6419,-1.6435,-1.6456,-1.6457,-1.6488,-1.6495,-1.6509,-1.6526,-1.6526,-1.6547,-1.6559,-1.656,-1.6535,-1.6533,-1.653,-1.6525,-1.6551,0,0,0,0,0,-1.6281,-1.6297,-1.6333,-1.6342,-1.6353,-1.6384,-1.6395,-1.6413,-1.6437,-1.6447,-1.647,-1.6493,-1.6512,-1.6523,-1.6542,-1.6554,-1.6562,-1.6556,-1.6554,-1.6551,-1.6551,-1.6559,-1.6557,-1.6578,-1.6578,-1.6578,0,0,-1.6269,-1.6294,-1.6302,-1.6336,-1.6355,-1.6371,-1.6391,-1.6407,-1.6419,-1.6449,-1.6466,-1.6485,-1.6512,-1.6526,-1.6534,-1.6541,-1.6548,-1.6551,-1.6549,-1.655,-1.6558,-1.6556,-1.6554,-1.6577,-1.6577,-1.6577,0,0,-1.6255,-1.6275,-1.6285,-1.6304,-1.6333,-1.6354,-1.6356,-1.639,-1.6404,-1.6422,-1.6445,-1.646,-1.6491,-1.651,-1.6523,-1.6517,-1.6533,-1.6522,-1.6509,-1.6516,-1.6514,-1.6513,-1.651,-1.6509,-1.6522,-1.6522,-1.6522,0,-1.6236,-1.626,-1.6288,-1.6302,-1.6316,-1.6345,-1.6355,-1.6372,-1.6406,-1.6415,-1.6423,-1.6463,-1.6484,-1.6503,-1.6501,-1.6511,-1.6515,-1.6518,-1.6512,-1.6511,-1.651,-1.6508,-1.6507,-1.6521,-1.6521,-1.6521,-1.6521,0,-1.6235,-1.6252,-1.6256,-1.6288,-1.6303,-1.6315,-1.6345,-1.6357,-1.6373,-1.6394,-1.6412,-1.6438,-1.6463,-1.6469,-1.6485,-1.649,-1.6494,-1.6506,-1.6519,-1.6506,-1.6505,-1.6504,-1.6518,-1.6519,-1.6519,-1.652,0,0,-1.62,-1.6248,-1.6249,-1.6264,-1.6298,-1.6312,-1.6325,-1.635,-1.6359,-1.6382,-1.6394,-1.6421,-1.6433,-1.6448,-1.6467,-1.6473,-1.6467,-1.6485,-1.6486,-1.6481,-1.6474,-1.6464,-1.6463,-1.6478,-1.6478,-1.6478,-1.6472,0,-1.619,-1.6216,-1.6242,-1.6258,-1.6274,-1.6302,-1.6314,-1.6336,-1.6355,-1.6372,-1.6393,-1.6411,-1.6426,-1.6435,-1.6443,-1.6466,-1.6466,-1.6467,-1.6489,-1.649,-1.6481,-1.6462,-1.6451,-1.6444,-1.6471,-1.6471,-1.6471,0,-1.6182,-1.6204,-1.6221,-1.6255,-1.6263,-1.6273,-1.6298,-1.6313,-1.6339,-1.6353,-1.6371,-1.6391,-1.6407,-1.6418,-1.6441,-1.6441,-1.6452,-1.6465,-1.6465,-1.6468,-1.6479,-1.6464,-1.6443,-1.6441,-1.6471,-1.6471,-1.6471,0,-1.6154,-1.6187,-1.6203,-1.6215,-1.6254,-1.6261,-1.6278,-1.6304,-1.6318,-1.634,-1.6349,-1.6372,-1.6385,-1.6403,-1.6429,-1.6435,-1.6449,-1.6462,-1.646,-1.646,-1.6461,-1.6461,-1.6441,-1.6469,-1.6469,-1.6469,-1.6469,0,-1.614,-1.615,-1.6191,-1.62,-1.6212,-1.6242,-1.6253,-1.6272,-1.6296,-1.631,-1.6335,-1.6348,-1.6382,-1.6398,-1.6419,-1.6435,-1.644,-1.6452,-1.6457,-1.6449,-1.6447,-1.6456,-1.6457,-1.6469,-1.6469,-1.6469,-1.6469,0,-1.611,-1.6138,-1.6156,-1.6192,-1.6202,-1.6209,-1.624,-1.625,-1.6271,-1.6288,-1.6294,-1.6327,-1.6348,-1.6377,-1.6406,-1.642,-1.6433,-1.6441,-1.6424,-1.6427,-1.6423,-1.6423,-1.6408,-1.6408,-1.6436,-1.6436,-1.6435,0,-1.6099,-1.6107,-1.6145,-1.6156,-1.6172,-1.6189,-1.6203,-1.6233,-1.6246,-1.6278,-1.6284,-1.6307,-1.6327,-1.6359,-1.6386,-1.6409,-1.6418,-1.6411,-1.6421,-1.6413,-1.6417,-1.6416,-1.6417,-1.6408,-1.6408,-1.6407,-1.6407,0,-1.6077,-1.609,-1.6109,-1.6133,-1.6149,-1.6169,-1.6191,-1.6198,-1.6233,-1.6247,-1.6269,-1.6284,-1.6314,-1.6337,-1.6364,-1.6381,-1.64,-1.6404,-1.6404,-1.6396,-1.6385,-1.6391,-1.6416,-1.6404,-1.6404,-1.6404,-1.6404,-1.6405,-1.6056,-1.6064,-1.6092,-1.6112,-1.6132,-1.6151,-1.6163,-1.6186,-1.6204,-1.6231,-1.6248,-1.6269,-1.6296,-1.6334,-1.6351,-1.6368,-1.6375,-1.6376,-1.6377,-1.6376,-1.6373,-1.6383,-1.6373,-1.6373,-1.6373,-1.6373,-1.6373,0,-1.6034,-1.6053,-1.6072,-1.6101,-1.6117,-1.6134,-1.6159,-1.6171,-1.6189,-1.6213,-1.6232,-1.6257,-1.6279,-1.6308,-1.6333,-1.6341,-1.635,-1.6346,-1.6345,-1.6349,-1.6366,-1.6362,-1.6338,-1.6338,-1.6338,-1.6338,-1.6338,-1.6338,-1.6025,-1.604,-1.6057,-1.6083,-1.6102,-1.6123,-1.6135,-1.6154,-1.6173,-1.62,-1.6218,-1.6237,-1.6263,-1.629,-1.6311,-1.6319,-1.6327,-1.632,-1.633,-1.6345,-1.6348,-1.6351,-1.6348,-1.6322,-1.6322,-1.6313,-1.6313,-1.6313]},{"header":{"parameterUnit":"m.s-1","parameterCategory":1,"la1":30.2991,"la2":30.254,"lo1":-89.0895,"lo2":-89.0444,"dy":0.0017,"dx":0.0017,"nx":28,"ny":28,"refTime":"2024-10-03T21:00:00:Z","depth":0,"parameterNumber":3,"parameterNumberName":"V-component_of_WINDS"},"data":[0,0,0,0,0,0,0,0,0,0,0,0,0,0,0,0,0,0,0,0,0,0,0,0,0,0,0,0,0,0,0,0,0,0,0,0,0,0,0,0,0,0,0,0,0,0,0,0,0,0,0,0,0,0,0,0,0,0,2.7706,2.7705,0,2.7543,2.7542,2.754,2.7429,2.7428,2.7428,2.7427,2.7254,2.725,2.7246,0,0,0,0,0,0,0,0,0,0,0,0,0,2.7916,2.7912,2.7706,2.7704,2.7702,2.7544,2.7542,2.7539,2.7429,2.7428,2.7427,2.7426,2.7255,2.7251,2.7246,0,0,0,0,0,0,0,0,0,0,0,0,0,2.7796,2.7911,2.7707,2.7628,2.762,2.7544,2.7541,2.7539,2.7429,2.7428,2.7427,2.7426,2.7257,2.7251,2.7245,2.7233,0,0,2.7228,2.7225,0,0,0,0,0,0,0,0,2.7803,2.7788,2.7642,2.7634,2.7624,2.7506,2.7552,2.7436,2.743,2.7502,2.7427,2.7425,2.7338,2.7326,2.7297,2.7225,2.7217,2.7227,2.7224,2.7221,2.7219,0,0,0,0,0,0,0,2.7811,2.7795,2.7642,2.764,2.7629,2.7599,2.7581,2.7529,2.7428,2.7495,2.7487,2.7469,2.7333,2.7303,2.7293,2.7215,2.7227,2.7222,2.7218,2.7216,2.7121,2.7122,0,0,0,0,0,0,2.7833,2.7802,2.7647,2.7637,2.7713,2.7597,2.7576,2.7545,2.7428,2.741,2.7471,2.7465,2.7314,2.7299,2.7286,2.7261,2.7221,2.7216,2.7212,2.712,2.7121,2.7122,0,0,0,0,0,0,2.7838,2.782,2.7653,2.7717,2.7694,2.7594,2.756,2.7542,2.7512,2.741,2.7391,2.7459,2.7312,2.7294,2.7247,2.7254,2.7213,2.7208,2.7119,2.712,2.7121,2.7214,0,0,0,0,0,0,2.7844,2.7822,2.7818,2.7718,2.7691,2.7619,2.756,2.754,2.7503,2.7494,2.7394,2.7376,2.731,2.7256,2.7241,2.7245,2.7203,2.7117,2.7119,2.7121,2.7209,2.7218,2.7225,0,0,0,0,0,2.7852,2.785,2.7819,2.78,2.7684,2.762,2.7604,2.7529,2.7504,2.7498,2.7432,2.738,2.7257,2.7252,2.7234,2.7237,2.7117,2.7119,2.7121,2.7206,2.7216,2.7225,0,0,0,0,0,0,2.7951,2.7835,2.7799,2.7765,2.7703,2.7601,2.7591,2.7543,2.7486,2.7479,2.7387,2.7366,2.7327,2.7277,2.7275,2.7217,2.718,2.7179,2.7251,2.726,2.7268,2.7279,2.7198,0,0,0,0,0,2.797,2.7929,2.7829,2.7809,2.778,2.7691,2.766,2.7609,2.754,2.7513,2.7443,2.7377,2.7323,2.7289,2.7234,2.7203,2.7177,2.7195,2.7204,2.7211,2.721,2.7187,2.7193,2.7129,2.7129,2.7129,0,0,2.8006,2.7938,2.7917,2.7827,2.7773,2.7731,2.767,2.7628,2.7595,2.7505,2.7456,2.7403,2.7323,2.7283,2.7262,2.724,2.7222,2.7213,2.722,2.7214,2.7189,2.7196,2.7201,2.713,2.713,2.713,0,0,2.805,2.7996,2.7972,2.792,2.7839,2.778,2.7775,2.768,2.7642,2.7591,2.7523,2.7481,2.7391,2.7336,2.7296,2.732,2.7269,2.7305,2.7345,2.7324,2.7329,2.7333,2.7339,2.7342,2.7305,2.7305,2.7305,0,2.8105,2.8041,2.7965,2.7927,2.7888,2.7808,2.7781,2.7733,2.7638,2.7612,2.759,2.7474,2.7415,2.7359,2.7366,2.7337,2.7325,2.7314,2.7335,2.7338,2.7341,2.7345,2.7348,2.731,2.7309,2.7309,2.7308,0,2.8111,2.8067,2.8057,2.7969,2.7929,2.7897,2.7814,2.7782,2.7734,2.7677,2.7626,2.7552,2.7479,2.7463,2.7415,2.7401,2.7389,2.7353,2.7313,2.7353,2.7355,2.7356,2.7317,2.7315,2.7314,2.7312,0,0,2.8211,2.8082,2.8079,2.8038,2.7943,2.7907,2.7871,2.7802,2.7775,2.7713,2.7678,2.7604,2.7569,2.7524,2.7469,2.7451,2.7472,2.7416,2.7413,2.7426,2.7448,2.7474,2.7477,2.7438,2.7438,2.7438,2.7453,0,2.8238,2.817,2.8101,2.8056,2.8014,2.7937,2.7905,2.7842,2.7788,2.7742,2.7681,2.7629,2.7589,2.7561,2.754,2.7474,2.7474,2.7472,2.7402,2.74,2.7421,2.7479,2.7506,2.7524,2.7454,2.7454,2.7454,0,2.8261,2.8204,2.8156,2.8064,2.8044,2.8016,2.7946,2.7905,2.7832,2.7793,2.7744,2.7686,2.7641,2.7609,2.7545,2.7545,2.7512,2.7475,2.7474,2.7462,2.7428,2.7465,2.7528,2.7529,2.7456,2.7455,2.7455,0,2.8335,2.8246,2.8205,2.8172,2.8066,2.8048,2.8002,2.7928,2.7891,2.7829,2.7803,2.7738,2.7701,2.765,2.7575,2.756,2.7518,2.748,2.7482,2.7484,2.7474,2.7475,2.7529,2.7459,2.7459,2.7459,2.7459,0,2.8371,2.8344,2.8237,2.8211,2.8178,2.8098,2.8066,2.8013,2.7948,2.7909,2.7839,2.7804,2.7709,2.7661,2.7603,2.7556,2.7541,2.7507,2.749,2.7511,2.7515,2.7486,2.7481,2.7459,2.7459,2.7459,2.7459,0,2.8447,2.8375,2.8325,2.8228,2.8203,2.8183,2.8099,2.807,2.8013,2.7964,2.7948,2.7857,2.7798,2.7719,2.7635,2.7595,2.7555,2.7532,2.758,2.757,2.7575,2.7575,2.761,2.7609,2.7543,2.7544,2.7545,0,2.8474,2.8451,2.8353,2.8323,2.828,2.8232,2.8194,2.8114,2.8077,2.7992,2.7973,2.7908,2.7852,2.776,2.7685,2.762,2.7593,2.761,2.7582,2.7603,2.7589,2.759,2.7586,2.7615,2.7616,2.7617,2.7618,0,2.8527,2.8492,2.8441,2.8377,2.8334,2.8279,2.8221,2.82,2.8107,2.8069,2.8008,2.7965,2.7879,2.7815,2.774,2.769,2.7638,2.7628,2.7624,2.7643,2.7671,2.7653,2.7595,2.7627,2.7626,2.7625,2.7625,2.7624,2.8576,2.8552,2.8479,2.8424,2.8372,2.8319,2.8287,2.8226,2.8175,2.81,2.8056,2.7996,2.7922,2.7816,2.7769,2.7719,2.7699,2.7695,2.7693,2.7692,2.7698,2.7682,2.7706,2.7705,2.7705,2.7705,2.7704,0,2.8623,2.8573,2.8523,2.8445,2.8401,2.8359,2.8292,2.8257,2.8206,2.8143,2.809,2.8019,2.7956,2.7877,2.7808,2.7784,2.7758,2.7768,2.7767,2.7756,2.7721,2.773,2.779,2.779,2.779,2.779,2.779,2.779,2.8643,2.8598,2.8555,2.8484,2.8433,2.8375,2.834,2.829,2.8239,2.8164,2.8112,2.8062,2.7991,2.7917,2.7857,2.7835,2.7811,2.7829,2.7799,2.7767,2.7759,2.7752,2.7759,2.7825,2.7825,2.7838,2.7838,2.7838]}]]